Location: Unspecified
(0.0000°N, 0.0000°E)
Time: 04:44:31
(UTC+00:00)

Courier 1B Rocket - All Passes

Search period start: 21 May 2026 00:00
Search period end: 31 May 2026 00:00
Orbit: 920 x 1201 km, 28.2° (Epoch: 20 May)

Date Brightness Start Highest point End Pass type
(mag) Time Alt. Az. Time Alt. Az. Time Alt. Az.
21 May - 01:30:44 10° WSW 01:38:03 89° NW 01:44:48 10° ENE visible
21 May - 03:26:11 10° W 03:31:38 25° NNW 03:36:49 10° NNE visible
21 May - 11:07:39 10° NNW 11:12:19 21° NNE 11:17:11 10° ENE daylight
21 May - 12:59:18 10° NW 13:05:58 74° NNE 13:13:11 10° ESE daylight
21 May - 14:53:31 10° W 14:59:45 34° SSW 15:06:23 10° SE daylight
21 May - 16:51:57 10° SW 16:54:31 12° SSW 16:57:06 10° S daylight
21 May - 22:37:00 10° SSW 22:42:26 20° SSE 22:47:39 10° ESE night (unlit)
22 May - 00:29:14 10° SW 00:36:38 62° SSE 00:43:30 10° ENE night (unlit)
22 May - 02:23:43 10° W 02:30:15 38° NNW 02:36:22 10° NE visible
22 May - 04:22:58 10° NW 04:24:18 11° NNW 04:25:37 10° N visible
22 May - 10:07:56 10° N 10:10:49 13° NNE 10:13:44 10° NE daylight
22 May - 11:58:25 10° NW 12:04:39 48° NNE 12:11:19 10° ESE daylight
22 May - 13:51:43 10° WNW 13:58:14 48° SSW 14:05:15 10° SE daylight
22 May - 15:48:19 10° WSW 15:52:34 16° SSW 15:56:59 10° SSE daylight
22 May - 21:36:28 10° SSW 21:40:33 15° SSE 21:44:33 10° SE night (unlit)
22 May - 23:27:57 10° SW 23:35:07 43° SSE 23:41:51 10° E night (unlit)
23 May - 01:21:38 10° WSW 01:28:52 59° NNW 01:35:36 10° NE visible
23 May - 03:18:28 10° WNW 03:22:41 17° NNW 03:26:46 10° NNE visible
23 May - 10:57:48 10° NNW 11:03:20 31° NNE 11:09:09 10° E daylight
23 May - 12:50:16 10° WNW 12:56:49 73° SSW 13:03:55 10° SE daylight
23 May - 14:45:33 10° WSW 14:50:48 22° SSW 14:56:20 10° SSE daylight
23 May - 20:36:53 10° S 20:38:31 11° SSE 20:40:10 10° SSE visible
23 May - 22:26:53 10° SSW 22:33:29 30° SSE 22:39:49 10° E night (unlit)
24 May - 00:19:51 10° WSW 00:27:27 88° NW 00:34:33 10° ENE night (unlit)
24 May - 02:15:23 10° W 02:21:10 26° NNW 02:26:39 10° NNE visible
24 May - 09:57:29 10° NNW 10:01:57 20° NNE 10:06:33 10° ENE daylight
24 May - 11:49:07 10° NW 11:55:32 75° NNE 12:02:23 10° ESE daylight
24 May - 13:43:21 10° W 13:49:12 32° SSW 13:55:27 10° SE daylight
24 May - 15:42:13 10° SSW 15:43:54 11° SSW 15:45:36 10° S daylight
24 May - 21:26:03 10° SSW 21:31:44 21° SSE 21:37:17 10° ESE night (unlit)
24 May - 23:18:19 10° SW 23:25:59 64° SSE 23:33:11 10° ENE night (unlit)
25 May - 01:12:51 10° W 01:19:42 39° NNW 01:26:08 10° NE visible
25 May - 03:11:49 10° NW 03:13:52 11° NNW 03:15:53 10° N visible
25 May - 08:57:45 10° N 09:00:28 13° NNE 09:03:12 10° NE daylight
25 May - 10:48:14 10° NW 10:54:16 48° NNE 11:00:37 10° ESE daylight
25 May - 12:41:33 10° W 12:47:45 46° SSW 12:54:23 10° SE daylight
25 May - 14:38:17 10° SW 14:42:00 15° SSW 14:45:52 10° SSE daylight
25 May - 20:25:32 10° SSW 20:29:51 15° SSE 20:34:07 10° SE visible
25 May - 22:17:02 10° SW 22:24:24 44° SSE 22:31:28 10° E night (unlit)
26 May - 00:10:44 10° WSW 00:18:15 59° NNW 00:25:18 10° NE night (unlit)
26 May - 02:07:34 10° WNW 02:12:11 18° NNW 02:16:38 10° NNE visible
26 May - 09:47:35 10° NNW 09:53:00 31° NNE 09:58:34 10° E daylight
26 May - 11:40:06 10° WNW 11:46:25 70° SSW 11:53:09 10° SE daylight
26 May - 13:35:28 10° WSW 13:40:18 21° SSW 13:45:22 10° SSE daylight
26 May - 19:25:58 10° S 19:27:49 11° SSE 19:29:40 10° SSE visible
26 May - 21:15:59 10° SSW 21:22:45 31° SSE 21:29:21 10° E visible
26 May - 23:08:57 10° WSW 23:16:46 86° NNW 23:24:10 10° ENE night (unlit)
27 May - 01:04:29 10° W 01:10:36 27° NNW 01:16:24 10° NNE visible
27 May - 08:47:13 10° NNW 08:51:38 20° NNE 08:56:06 10° ENE daylight
27 May - 10:38:56 10° NW 10:45:11 76° NNE 10:51:44 10° ESE daylight
27 May - 12:33:14 10° W 12:38:45 30° SSW 12:44:35 10° SSE daylight
27 May - 20:15:12 10° SSW 20:20:59 22° SSE 20:26:43 10° ESE visible
27 May - 22:07:26 10° SW 22:15:13 66° SSE 22:22:43 10° ENE night (unlit)
28 May - 00:01:58 10° W 00:09:03 40° NNW 00:15:48 10° NE night (unlit)
28 May - 02:00:40 10° NW 02:03:21 12° NNW 02:06:00 10° N visible
28 May - 07:47:21 10° N 07:50:09 13° NNE 07:52:57 10° NE daylight
28 May - 09:38:00 10° NW 09:43:58 48° NNE 09:50:06 10° ESE daylight
28 May - 11:31:24 10° W 11:37:22 44° SSW 11:43:39 10° SE daylight
28 May - 13:28:24 10° SW 13:31:32 14° SSW 13:34:45 10° S daylight
28 May - 19:14:48 10° SSW 19:19:07 16° SSE 19:23:27 10° ESE visible
28 May - 21:06:11 10° SW 21:13:38 45° SSE 21:20:56 10° E visible
28 May - 22:59:51 10° WSW 23:07:32 59° NNW 23:14:53 10° NE night (unlit)
29 May - 00:56:39 10° WNW 01:01:36 19° NNW 01:06:23 10° NNE night (unlit)
29 May - 08:37:17 10° NNW 08:42:42 31° NNE 08:48:09 10° E daylight
29 May - 10:29:55 10° WNW 10:36:07 68° SSW 10:42:33 10° SE daylight
29 May - 12:25:27 10° WSW 12:29:53 19° SSW 12:34:29 10° SSE daylight
29 May - 18:15:32 10° S 18:17:07 11° SSE 18:18:45 10° SSE visible
29 May - 20:05:13 10° SSW 20:11:57 32° SSE 20:18:43 10° E visible
29 May - 21:58:05 10° WSW 22:05:58 85° NNW 22:13:39 10° ENE night (unlit)
29 May - 23:53:35 10° W 23:59:56 27° NNW 00:06:03 10° NNE night (unlit)
30 May - 07:36:47 10° NNW 07:41:21 20° NNE 07:45:50 10° ENE daylight
30 May - 09:28:40 10° NW 09:34:54 78° NNE 09:41:14 10° ESE daylight
30 May - 11:23:08 10° W 11:28:23 28° SSW 11:33:52 10° SSE daylight
30 May - 19:04:32 10° SSW 19:10:13 22° SSE 19:16:00 10° ESE visible
30 May - 20:56:38 10° SW 21:04:24 67° SSE 21:12:07 10° ENE visible
30 May - 22:51:06 10° W 22:58:19 40° NNW 23:05:19 10° NE night (unlit)
